Location: Curupao
(10.4996°N, 66.6442°W)
Time: 00:13:15
(UTC+00:00)

Cosmos 962 Rocket - Pass Details

Date: 23 May 2024
Orbit: 950 x 999 km, 82.9° (Epoch: 15 June)

Event Time Altitude Azimuth Distance (km) Brightness Sun altitude
Exits shadow 07:53:43 70° 156° (SSE) 1,041 4.5 -29.6°
Maximum altitude 07:54:27 80° 93° (E) 998 4.5 -29.5°
Drops below altitude 10° 08:00:45 10° 7° (N) 2,745 7.3 -28.2°
Sets 08:03:17 0° 6° (N) 3,699 8.0 -27.6°
